Precipitable_Water
1.25 1.24 1.30 1.35 1.31 1.26 1.27 1.26 1.28 1.30 1.36 1.40 1.34 1.23 1.18 1.12 1.07 0.97 0.82 0.70 0.66 0.62 0.59 0.55 0.51 0.46 0.45 0.43 0.46 0.49 0.49 0.47 0.45 0.43 0.41 0.41 0.41 0.40 0.39 0.40 0.39 0.40 0.36 0.30 0.27 0.24 0.22 0.24 0.24 0.26 0.25 0.25 0.25 0.25 0.29 0.29 0.30 0.28 0.20 0.18 0.15 0.18 0.16 0.21 0.19 0.21 0.24 0.20 0.23 0.23 0.24 0.23 0.21 0.27 0.31 0.36 0.33 0.33 0.34 0.32 0.38 0.43 0.44 0.47 0.49 0.53 0.55 0.58
1.21 1.20 1.25 1.26 1.25 1.20 1.23 1.25 1.28 1.23 1.23 1.27 1.18 1.07 1.02 0.93 0.76 0.63 0.57 0.54 0.51 0.48 0.46 0.46 0.45 0.47 0.47 0.47 0.52 0.50 0.48 0.46 0.41 0.37 0.33 0.37 0.36 0.38 0.41 0.41 0.41 0.37 0.34 0.27 0.22 0.20 0.18 0.20 0.21 0.22 0.21 0.19 0.25 0.22 0.26 0.21 0.27 0.20 0.18 0.16 0.14 0.16 0.19 0.22 0.23 0.24 0.22 0.21 0.21 0.21 0.23 0.22 0.21 0.23 0.28 0.22 0.22 0.25 0.21 0.23 0.28 0.28 0.34 0.39 0.43 0.45 0.46 0.48
1.12 1.10 1.13 1.19 1.22 1.13 1.12 1.13 1.22 1.18 1.15 1.06 1.00 0.93 0.78 0.66 0.57 0.51 0.47 0.45 0.47 0.49 0.52 0.51 0.51 0.52 0.51 0.52 0.50 0.50 0.45 0.37 0.31 0.26 0.29 0.35 0.37 0.40 0.41 0.40 0.40 0.34 0.28 0.23 0.22 0.20 0.17 0.17 0.20 0.19 0.18 0.17 0.20 0.19 0.23 0.20 0.23 0.22 0.18 0.14 0.16 0.19 0.20 0.23 0.24 0.23 0.24 0.23 0.20 0.20 0.21 0.20 0.21 0.22 0.29 0.20 0.19 0.19 0.16 0.15 0.20 0.21 0.22 0.27 0.31 0.35 0.37 0.39
1.08 1.01 1.04 1.10 1.10 1.02 1.04 1.08 1.06 0.98 0.96 0.91 0.84 0.73 0.65 0.58 0.53 0.51 0.53 0.57 0.60 0.59 0.57 0.56 0.55 0.53 0.51 0.47 0.46 0.42 0.32 0.27 0.23 0.27 0.33 0.36 0.37 0.40 0.38 0.38 0.36 0.32 0.29 0.26 0.24 0.21 0.19 0.17 0.16 0.17 0.16 0.15 0.18 0.21 0.18 0.21 0.19 0.21 0.17 0.14 0.16 0.20 0.18 0.21 0.23 0.23 0.22 0.21 0.19 0.18 0.19 0.17 0.21 0.21 0.19 0.18 0.14 0.12 0.14 0.18 0.16 0.16 0.20 0.22 0.26 0.29 0.32 0.34
0.97 0.94 0.98 1.04 1.10 1.13 1.06 1.01 0.89 0.90 0.88 0.81 0.73 0.65 0.60 0.57 0.59 0.63 0.64 0.63 0.63 0.62 0.61 0.57 0.55 0.50 0.44 0.38 0.35 0.35 0.29 0.22 0.25 0.30 0.32 0.32 0.35 0.37 0.35 0.34 0.32 0.29 0.26 0.23 0.20 0.18 0.17 0.15 0.14 0.15 0.15 0.13 0.16 0.16 0.17 0.20 0.22 0.21 0.17 0.18 0.18 0.20 0.17 0.20 0.20 0.21 0.20 0.20 0.18 0.17 0.15 0.16 0.19 0.18 0.17 0.16 0.12 0.10 0.15 0.19 0.20 0.21 0.24 0.24 0.26 0.29 0.31 0.31
0.92 0.90 0.94 1.01 0.97 0.87 0.86 0.80 0.84 0.83 0.79 0.71 0.65 0.62 0.61 0.63 0.65 0.65 0.64 0.63 0.63 0.62 0.58 0.54 0.46 0.40 0.37 0.37 0.37 0.34 0.28 0.16 0.26 0.26 0.30 0.28 0.31 0.33 0.32 0.31 0.28 0.25 0.21 0.18 0.16 0.15 0.14 0.14 0.14 0.12 0.12 0.12 0.12 0.12 0.15 0.16 0.20 0.13 0.18 0.17 0.19 0.20 0.16 0.18 0.19 0.19 0.19 0.17 0.16 0.14 0.16 0.17 0.15 0.13 0.15 0.15 0.13 0.14 0.21 0.21 0.21 0.23 0.25 0.26 0.28 0.28 0.27 0.27
0.87 0.86 0.84 0.87 0.91 0.84 0.78 0.79 0.79 0.75 0.68 0.65 0.62 0.63 0.64 0.64 0.64 0.65 0.64 0.63 0.60 0.56 0.51 0.44 0.39 0.39 0.38 0.37 0.34 0.30 0.24 0.23 0.25 0.27 0.28 0.28 0.29 0.29 0.28 0.27 0.24 0.21 0.19 0.15 0.14 0.14 0.13 0.12 0.12 0.11 0.11 0.11 0.12 0.13 0.15 0.15 0.18 0.14 0.12 0.16 0.16 0.18 0.16 0.18 0.18 0.19 0.17 0.16 0.14 0.16 0.17 0.13 0.13 0.09 0.15 0.12 0.15 0.17 0.17 0.18 0.19 0.20 0.22 0.24 0.22 0.24 0.24 0.25
0.91 0.84 0.77 0.77 0.79 0.77 0.75 0.74 0.69 0.64 0.62 0.62 0.64 0.66 0.66 0.65 0.65 0.63 0.62 0.58 0.54 0.47 0.42 0.40 0.39 0.36 0.37 0.31 0.27 0.23 0.22 0.22 0.25 0.29 0.27 0.26 0.26 0.26 0.27 0.23 0.21 0.20 0.17 0.14 0.14 0.13 0.13 0.11 0.10 0.12 0.11 0.10 0.11 0.12 0.15 0.14 0.15 0.13 0.13 0.15 0.15 0.17 0.17 0.17 0.16 0.16 0.15 0.15 0.16 0.15 0.12 0.12 0.13 0.12 0.13 0.10 0.12 0.13 0.14 0.17 0.17 0.18 0.20 0.21 0.20 0.21 0.22 0.24
1.03 0.96 0.85 0.72 0.72 0.71 0.67 0.65 0.62 0.62 0.63 0.65 0.68 0.67 0.66 0.65 0.62 0.60 0.56 0.50 0.44 0.41 0.38 0.37 0.34 0.36 0.37 0.29 0.23 0.19 0.19 0.25 0.28 0.27 0.24 0.22 0.23 0.24 0.23 0.19 0.21 0.18 0.17 0.17 0.16 0.14 0.13 0.11 0.11 0.12 0.09 0.10 0.13 0.12 0.14 0.11 0.10 0.14 0.13 0.15 0.15 0.14 0.15 0.14 0.14 0.14 0.14 0.14 0.14 0.12 0.11 0.12 0.13 0.14 0.09 0.10 0.11 0.13 0.15 0.15 0.16 0.17 0.17 0.18 0.19 0.20 0.21 0.22
0.93 0.94 0.86 0.73 0.68 0.63 0.60 0.63 0.64 0.64 0.65 0.67 0.67 0.66 0.65 0.61 0.58 0.52 0.47 0.42 0.39 0.38 0.36 0.35 0.32 0.33 0.29 0.23 0.22 0.17 0.24 0.28 0.27 0.25 0.22 0.20 0.20 0.21 0.21 0.20 0.20 0.18 0.16 0.16 0.16 0.14 0.13 0.12 0.12 0.13 0.13 0.12 0.14 0.12 0.14 0.12 0.11 0.15 0.14 0.13 0.12 0.13 0.13 0.13 0.12 0.12 0.14 0.13 0.14 0.11 0.09 0.09 0.11 0.10 0.06 0.11 0.12 0.13 0.13 0.14 0.15 0.15 0.15 0.17 0.18 0.20 0.22 0.22
0.81 0.79 0.73 0.67 0.61 0.58 0.60 0.64 0.64 0.62 0.63 0.62 0.63 0.62 0.59 0.55 0.48 0.43 0.41 0.39 0.38 0.37 0.35 0.32 0.35 0.31 0.23 0.24 0.20 0.17 0.27 0.26 0.25 0.21 0.19 0.19 0.19 0.20 0.19 0.20 0.21 0.18 0.17 0.16 0.15 0.16 0.15 0.15 0.15 0.14 0.13 0.10 0.13 0.12 0.13 0.13 0.15 0.13 0.13 0.12 0.12 0.12 0.12 0.12 0.12 0.12 0.13 0.12 0.14 0.11 0.08 0.09 0.10 0.10 0.07 0.10 0.12 0.14 0.12 0.12 0.13 0.13 0.14 0.15 0.16 0.18 0.21 0.22
0.69 0.67 0.65 0.63 0.60 0.60 0.63 0.64 0.62 0.60 0.59 0.58 0.57 0.54 0.50 0.44 0.42 0.41 0.40 0.39 0.37 0.35 0.33 0.34 0.35 0.29 0.27 0.23 0.20 0.19 0.25 0.23 0.23 0.19 0.18 0.19 0.18 0.20 0.21 0.21 0.21 0.19 0.17 0.15 0.16 0.18 0.18 0.16 0.14 0.12 0.09 0.15 0.10 0.13 0.12 0.16 0.14 0.12 0.12 0.08 0.10 0.10 0.09 0.11 0.10 0.12 0.13 0.11 0.12 0.12 0.08 0.07 0.09 0.07 0.10 0.12 0.12 0.13 0.12 0.11 0.11 0.12 0.13 0.14 0.15 0.16 0.17 0.18
0.62 0.62 0.61 0.60 0.59 0.60 0.61 0.60 0.57 0.55 0.52 0.49 0.47 0.44 0.42 0.40 0.40 0.40 0.40 0.38 0.37 0.35 0.35 0.33 0.31 0.29 0.24 0.19 0.20 0.24 0.24 0.24 0.20 0.17 0.18 0.20 0.20 0.21 0.21 0.22 0.21 0.21 0.19 0.17 0.16 0.19 0.20 0.18 0.17 0.12 0.15 0.13 0.11 0.11 0.13 0.15 0.13 0.13 0.11 0.09 0.08 0.07 0.07 0.10 0.12 0.12 0.10 0.11 0.12 0.11 0.06 0.06 0.07 0.09 0.11 0.12 0.13 0.12 0.11 0.10 0.11 0.11 0.12 0.13 0.14 0.14 0.15 0.18
0.57 0.57 0.57 0.57 0.56 0.57 0.57 0.54 0.50 0.48 0.45 0.44 0.41 0.39 0.40 0.42 0.42 0.43 0.41 0.37 0.38 0.37 0.36 0.35 0.33 0.31 0.24 0.19 0.21 0.24 0.24 0.22 0.19 0.16 0.17 0.20 0.18 0.18 0.20 0.21 0.22 0.21 0.22 0.20 0.20 0.21 0.20 0.20 0.18 0.16 0.18 0.13 0.10 0.19 0.13 0.11 0.13 0.08 0.09 0.10 0.06 0.06 0.07 0.10 0.10 0.10 0.10 0.12 0.11 0.12 0.06 0.07 0.08 0.09 0.11 0.13 0.13 0.11 0.10 0.11 0.11 0.12 0.12 0.13 0.14 0.14 0.15 0.17
0.51 0.50 0.49 0.49 0.49 0.48 0.50 0.50 0.48 0.46 0.43 0.41 0.40 0.41 0.42 0.41 0.41 0.38 0.38 0.37 0.39 0.40 0.38 0.38 0.33 0.26 0.19 0.19 0.24 0.25 0.23 0.19 0.15 0.15 0.18 0.18 0.16 0.16 0.17 0.20 0.20 0.20 0.21 0.22 0.20 0.21 0.20 0.18 0.15 0.13 0.12 0.17 0.17 0.13 0.09 0.09 0.09 0.07 0.06 0.06 0.06 0.05 0.06 0.08 0.11 0.11 0.09 0.11 0.13 0.11 0.07 0.07 0.08 0.10 0.12 0.13 0.12 0.12 0.11 0.11 0.12 0.12 0.13 0.13 0.14 0.14 0.15 0.16
0.48 0.47 0.47 0.46 0.45 0.44 0.43 0.43 0.43 0.42 0.42 0.42 0.41 0.42 0.42 0.41 0.41 0.41 0.42 0.39 0.43 0.44 0.42 0.32 0.27 0.24 0.18 0.15 0.20 0.21 0.17 0.12 0.13 0.17 0.19 0.20 0.18 0.15 0.17 0.18 0.20 0.20 0.20 0.20 0.22 0.20 0.19 0.16 0.13 0.11 0.13 0.13 0.11 0.08 0.07 0.07 0.06 0.06 0.06 0.04 0.05 0.06 0.06 0.07 0.12 0.12 0.14 0.11 0.12 0.10 0.07 0.08 0.08 0.10 0.12 0.13 0.12 0.12 0.11 0.11 0.12 0.13 0.13 0.14 0.14 0.15 0.16 0.17
0.48 0.46 0.45 0.42 0.41 0.40 0.37 0.36 0.35 0.37 0.37 0.39 0.41 0.42 0.42 0.43 0.41 0.39 0.37 0.39 0.41 0.41 0.33 0.22 0.22 0.23 0.14 0.24 0.22 0.14 0.11 0.14 0.17 0.16 0.17 0.20 0.20 0.18 0.17 0.16 0.16 0.17 0.19 0.19 0.20 0.19 0.18 0.17 0.15 0.14 0.10 0.08 0.08 0.07 0.05 0.05 0.05 0.05 0.06 0.05 0.06 0.06 0.06 0.07 0.10 0.14 0.13 0.12 0.09 0.12 0.09 0.09 0.10 0.11 0.12 0.13 0.13 0.12 0.11 0.11 0.13 0.14 0.14 0.15 0.15 0.15 0.15 0.16
0.43 0.41 0.40 0.41 0.39 0.37 0.34 0.34 0.35 0.36 0.37 0.38 0.37 0.38 0.38 0.39 0.39 0.35 0.31 0.30 0.30 0.28 0.25 0.25 0.22 0.18 0.18 0.21 0.13 0.12 0.15 0.14 0.14 0.15 0.17 0.20 0.22 0.19 0.17 0.15 0.16 0.17 0.16 0.15 0.16 0.14 0.14 0.11 0.14 0.07 0.06 0.07 0.07 0.06 0.06 0.04 0.05 0.05 0.06 0.06 0.07 0.08 0.08 0.07 0.07 0.10 0.12 0.13 0.10 0.10 0.10 0.10 0.11 0.12 0.12 0.13 0.13 0.12 0.12 0.13 0.13 0.14 0.15 0.15 0.16 0.16 0.16 0.16
0.42 0.39 0.39 0.39 0.38 0.36 0.35 0.36 0.36 0.38 0.39 0.40 0.39 0.37 0.33 0.31 0.29 0.29 0.29 0.28 0.23 0.20 0.15 0.17 0.13 0.10 0.08 0.09 0.13 0.14 0.14 0.14 0.16 0.16 0.14 0.17 0.20 0.19 0.19 0.18 0.17 0.14 0.12 0.11 0.11 0.12 0.13 0.11 0.10 0.06 0.06 0.06 0.06 0.07 0.06 0.06 0.07 0.06 0.07 0.07 0.07 0.07 0.08 0.08 0.10 0.12 0.13 0.10 0.11 0.10 0.09 0.10 0.11 0.12 0.12 0.13 0.13 0.13 0.13 0.14 0.14 0.15 0.15 0.16 0.16 0.16 0.16 0.16
0.41 0.38 0.37 0.38 0.37 0.36 0.35 0.36 0.37 0.37 0.36 0.32 0.31 0.30 0.29 0.23 0.20 0.18 0.22 0.22 0.18 0.17 0.16 0.14 0.12 0.12 0.11 0.11 0.11 0.15 0.15 0.15 0.12 0.14 0.16 0.20 0.19 0.16 0.15 0.15 0.14 0.14 0.12 0.09 0.11 0.11 0.12 0.07 0.05 0.05 0.06 0.07 0.08 0.09 0.08 0.09 0.09 0.08 0.09 0.08 0.08 0.08 0.09 0.10 0.11 0.13 0.15 0.12 0.11 0.11 0.11 0.11 0.11 0.12 0.12 0.12 0.13 0.13 0.13 0.14 0.14 0.15 0.15 0.16 0.16 0.16 0.16 0.17
0.40 0.37 0.36 0.37 0.37 0.36 0.35 0.35 0.36 0.37 0.38 0.34 0.33 0.25 0.18 0.18 0.16 0.14 0.16 0.18 0.20 0.19 0.16 0.14 0.13 0.12 0.10 0.14 0.15 0.13 0.09 0.09 0.13 0.14 0.14 0.20 0.19 0.15 0.10 0.13 0.10 0.08 0.10 0.11 0.10 0.14 0.12 0.06 0.06 0.07 0.07 0.09 0.10 0.11 0.11 0.10 0.11 0.09 0.09 0.08 0.08 0.09 0.08 0.10 0.10 0.13 0.15 0.11 0.10 0.12 0.11 0.11 0.12 0.12 0.12 0.13 0.13 0.12 0.13 0.14 0.14 0.15 0.15 0.16 0.16 0.16 0.17 0.17
0.40 0.37 0.35 0.37 0.36 0.36 0.35 0.36 0.37 0.36 0.37 0.35 0.30 0.28 0.27 0.25 0.27 0.22 0.21 0.15 0.18 0.21 0.18 0.15 0.15 0.13 0.16 0.16 0.16 0.14 0.11 0.08 0.10 0.13 0.17 0.19 0.15 0.11 0.11 0.10 0.09 0.07 0.10 0.11 0.10 0.09 0.06 0.06 0.07 0.09 0.11 0.12 0.12 0.12 0.12 0.11 0.10 0.10 0.09 0.09 0.09 0.09 0.10 0.11 0.12 0.14 0.14 0.13 0.11 0.12 0.11 0.12 0.12 0.12 0.12 0.13 0.13 0.14 0.15 0.15 0.15 0.15 0.15 0.15 0.16 0.17 0.17 0.18
0.39 0.37 0.35 0.36 0.37 0.37 0.36 0.37 0.36 0.37 0.34 0.29 0.26 0.28 0.25 0.34 0.37 0.33 0.23 0.18 0.16 0.21 0.18 0.17 0.12 0.12 0.13 0.16 0.16 0.15 0.08 0.08 0.08 0.12 0.14 0.18 0.12 0.11 0.11 0.08 0.08 0.08 0.09 0.09 0.07 0.06 0.06 0.07 0.08 0.11 0.12 0.12 0.11 0.12 0.11 0.11 0.11 0.09 0.09 0.09 0.08 0.09 0.09 0.08 0.11 0.12 0.14 0.12 0.11 0.12 0.11 0.12 0.11 0.12 0.13 0.14 0.14 0.14 0.15 0.16 0.16 0.17 0.16 0.16 0.16 0.17 0.17 0.17
0.40 0.37 0.36 0.35 0.38 0.37 0.38 0.35 0.37 0.33 0.30 0.29 0.27 0.26 0.34 0.39 0.35 0.30 0.23 0.16 0.14 0.18 0.20 0.19 0.17 0.12 0.14 0.12 0.16 0.13 0.09 0.09 0.10 0.10 0.18 0.16 0.10 0.13 0.11 0.09 0.08 0.08 0.07 0.08 0.07 0.07 0.06 0.09 0.12 0.12 0.12 0.11 0.09 0.11 0.10 0.10 0.09 0.10 0.10 0.09 0.09 0.09 0.10 0.09 0.10 0.12 0.14 0.14 0.15 0.14 0.12 0.11 0.11 0.11 0.11 0.13 0.15 0.15 0.15 0.16 0.16 0.17 0.17 0.18 0.18 0.18 0.18 0.18
0.43 0.39 0.36 0.37 0.36 0.39 0.37 0.36 0.29 0.29 0.33 0.30 0.28 0.35 0.40 0.42 0.39 0.32 0.20 0.15 0.15 0.16 0.26 0.21 0.19 0.16 0.16 0.22 0.20 0.14 0.12 0.11 0.12 0.14 0.17 0.17 0.13 0.12 0.10 0.13 0.10 0.07 0.08 0.09 0.09 0.07 0.08 0.11 0.14 0.12 0.11 0.11 0.10 0.10 0.10 0.10 0.09 0.10 0.11 0.10 0.10 0.11 0.10 0.11 0.12 0.12 0.11 0.11 0.13 0.13 0.09 0.09 0.10 0.11 0.11 0.13 0.13 0.13 0.15 0.15 0.15 0.16 0.17 0.17 0.16 0.17 0.18 0.19
0.45 0.42 0.38 0.37 0.37 0.36 0.37 0.29 0.27 0.31 0.29 0.26 0.30 0.39 0.41 0.40 0.41 0.33 0.18 0.11 0.08 0.14 0.19 0.11 0.22 0.14 0.24 0.14 0.17 0.15 0.14 0.09 0.14 0.15 0.19 0.18 0.22 0.14 0.12 0.11 0.12 0.07 0.09 0.10 0.09 0.10 0.10 0.14 0.13 0.11 0.11 0.11 0.11 0.10 0.11 0.12 0.10 0.09 0.10 0.12 0.12 0.12 0.12 0.12 0.11 0.11 0.10 0.09 0.12 0.13 0.09 0.08 0.10 0.10 0.11 0.12 0.12 0.13 0.15 0.15 0.15 0.16 0.16 0.17 0.17 0.17 0.18 0.18
0.46 0.43 0.41 0.39 0.38 0.37 0.29 0.25 0.33 0.32 0.25 0.26 0.35 0.42 0.42 0.38 0.40 0.30 0.13 0.10 0.08 0.16 0.12 0.16 0.16 0.17 0.23 0.18 0.14 0.15 0.07 0.08 0.14 0.16 0.16 0.18 0.14 0.20 0.10 0.09 0.11 0.13 0.13 0.13 0.10 0.09 0.12 0.12 0.12 0.12 0.11 0.11 0.10 0.09 0.11 0.12 0.10 0.09 0.12 0.13 0.13 0.12 0.12 0.12 0.12 0.12 0.11 0.13 0.14 0.13 0.12 0.09 0.09 0.10 0.12 0.12 0.12 0.13 0.14 0.14 0.15 0.15 0.16 0.16 0.17 0.18 0.19 0.19
0.47 0.45 0.43 0.42 0.39 0.38 0.31 0.30 0.31 0.26 0.25 0.32 0.41 0.39 0.40 0.40 0.37 0.29 0.14 0.07 0.06 0.19 0.14 0.16 0.16 0.26 0.21 0.18 0.15 0.10 0.09 0.14 0.09 0.11 0.18 0.19 0.18 0.15 0.11 0.09 0.08 0.09 0.12 0.11 0.07 0.11 0.11 0.10 0.11 0.11 0.11 0.11 0.10 0.11 0.12 0.13 0.11 0.11 0.13 0.14 0.13 0.13 0.13 0.13 0.13 0.12 0.12 0.11 0.10 0.11 0.13 0.09 0.09 0.10 0.12 0.12 0.11 0.12 0.13 0.14 0.15 0.16 0.16 0.17 0.18 0.18 0.19 0.20
0.48 0.45 0.44 0.44 0.42 0.40 0.40 0.31 0.29 0.27 0.36 0.40 0.41 0.39 0.36 0.41 0.27 0.18 0.12 0.08 0.13 0.14 0.31 0.15 0.27 0.17 0.17 0.18 0.14 0.12 0.12 0.13 0.09 0.14 0.17 0.17 0.18 0.14 0.10 0.11 0.11 0.11 0.13 0.11 0.08 0.10 0.12 0.12 0.13 0.13 0.11 0.10 0.12 0.14 0.14 0.14 0.11 0.14 0.16 0.16 0.16 0.15 0.15 0.14 0.13 0.13 0.12 0.10 0.08 0.10 0.11 0.08 0.08 0.10 0.10 0.12 0.12 0.12 0.13 0.14 0.15 0.16 0.17 0.17 0.18 0.19 0.20 0.21
0.49 0.47 0.46 0.45 0.43 0.41 0.40 0.41 0.34 0.40 0.44 0.42 0.40 0.37 0.35 0.30 0.21 0.15 0.11 0.08 0.22 0.12 0.20 0.21 0.17 0.14 0.16 0.11 0.11 0.12 0.10 0.10 0.12 0.14 0.15 0.12 0.14 0.18 0.14 0.18 0.13 0.12 0.10 0.13 0.11 0.12 0.15 0.18 0.18 0.14 0.12 0.13 0.14 0.15 0.16 0.15 0.15 0.17 0.17 0.14 0.14 0.14 0.14 0.14 0.13 0.12 0.11 0.08 0.09 0.10 0.11 0.10 0.07 0.09 0.10 0.10 0.10 0.12 0.14 0.15 0.16 0.16 0.17 0.18 0.19 0.20 0.21 0.21
0.50 0.48 0.48 0.45 0.37 0.37 0.36 0.32 0.39 0.46 0.45 0.44 0.39 0.32 0.28 0.20 0.15 0.13 0.10 0.10 0.16 0.15 0.19 0.17 0.15 0.17 0.12 0.09 0.08 0.10 0.10 0.10 0.10 0.12 0.10 0.14 0.12 0.14 0.14 0.11 0.16 0.11 0.11 0.11 0.10 0.12 0.14 0.15 0.14 0.16 0.17 0.16 0.17 0.15 0.18 0.18 0.18 0.17 0.14 0.13 0.12 0.11 0.12 0.12 0.11 0.12 0.08 0.07 0.10 0.11 0.11 0.11 0.07 0.08 0.11 0.12 0.13 0.15 0.14 0.14 0.15 0.16 0.17 0.18 0.19 0.20 0.21 0.22
0.50 0.48 0.48 0.45 0.45 0.46 0.32 0.30 0.42 0.49 0.45 0.42 0.34 0.25 0.21 0.14 0.16 0.12 0.11 0.21 0.11 0.14 0.13 0.14 0.16 0.13 0.11 0.12 0.09 0.09 0.08 0.10 0.11 0.10 0.08 0.10 0.09 0.09 0.10 0.08 0.09 0.07 0.07 0.08 0.08 0.11 0.10 0.11 0.15 0.16 0.20 0.16 0.15 0.14 0.15 0.17 0.17 0.16 0.14 0.13 0.10 0.09 0.09 0.08 0.09 0.08 0.08 0.07 0.10 0.11 0.11 0.10 0.09 0.09 0.12 0.13 0.14 0.15 0.16 0.15 0.15 0.16 0.18 0.19 0.20 0.21 0.22 0.23
0.51 0.48 0.48 0.48 0.49 0.41 0.42 0.46 0.50 0.48 0.45 0.37 0.28 0.24 0.17 0.14 0.12 0.14 0.13 0.15 0.11 0.17 0.13 0.16 0.14 0.13 0.11 0.09 0.08 0.09 0.13 0.08 0.12 0.11 0.12 0.11 0.09 0.09 0.11 0.10 0.10 0.08 0.06 0.08 0.08 0.08 0.09 0.12 0.14 0.15 0.17 0.19 0.17 0.12 0.12 0.12 0.15 0.14 0.13 0.12 0.10 0.08 0.08 0.07 0.07 0.08 0.08 0.09 0.10 0.10 0.12 0.09 0.09 0.10 0.13 0.13 0.15 0.16 0.17 0.17 0.18 0.18 0.19 0.19 0.21 0.22 0.23 0.24
0.50 0.48 0.43 0.48 0.48 0.48 0.48 0.50 0.49 0.47 0.37 0.32 0.25 0.20 0.18 0.14 0.14 0.20 0.15 0.16 0.14 0.18 0.17 0.14 0.14 0.14 0.12 0.08 0.08 0.10 0.08 0.10 0.10 0.10 0.11 0.10 0.10 0.08 0.09 0.12 0.11 0.09 0.09 0.09 0.08 0.08 0.07 0.08 0.11 0.13 0.11 0.19 0.16 0.15 0.14 0.13 0.14 0.14 0.14 0.12 0.11 0.10 0.08 0.07 0.07 0.07 0.07 0.08 0.09 0.11 0.09 0.08 0.07 0.09 0.13 0.14 0.16 0.16 0.17 0.18 0.19 0.20 0.20 0.21 0.22 0.23 0.24 0.24
0.51 0.47 0.45 0.44 0.45 0.45 0.48 0.49 0.48 0.46 0.35 0.28 0.23 0.19 0.16 0.15 0.16 0.15 0.15 0.16 0.16 0.17 0.14 0.18 0.13 0.12 0.10 0.10 0.10 0.11 0.10 0.08 0.11 0.10 0.10 0.09 0.08 0.08 0.08 0.09 0.12 0.11 0.10 0.08 0.09 0.09 0.08 0.08 0.11 0.16 0.16 0.18 0.15 0.18 0.17 0.15 0.14 0.15 0.15 0.14 0.12 0.11 0.12 0.09 0.10 0.09 0.08 0.08 0.08 0.09 0.08 0.09 0.09 0.13 0.15 0.17 0.17 0.17 0.17 0.18 0.19 0.20 0.21 0.22 0.22 0.22 0.23 0.24
0.49 0.41 0.43 0.39 0.39 0.42 0.47 0.48 0.47 0.42 0.32 0.25 0.20 0.18 0.16 0.16 0.15 0.18 0.16 0.21 0.20 0.15 0.15 0.14 0.13 0.10 0.10 0.09 0.11 0.10 0.15 0.09 0.10 0.10 0.09 0.10 0.10 0.08 0.10 0.10 0.10 0.11 0.09 0.08 0.10 0.08 0.09 0.08 0.14 0.15 0.17 0.17 0.17 0.18 0.17 0.16 0.10 0.13 0.13 0.11 0.12 0.14 0.12 0.10 0.10 0.10 0.10 0.09 0.07 0.09 0.08 0.09 0.11 0.12 0.15 0.16 0.16 0.16 0.17 0.18 0.19 0.20 0.21 0.22 0.22 0.23 0.24 0.24
0.39 0.39 0.34 0.37 0.38 0.43 0.47 0.47 0.45 0.37 0.30 0.24 0.20 0.17 0.18 0.18 0.20 0.18 0.21 0.19 0.18 0.18 0.15 0.11 0.10 0.10 0.09 0.08 0.08 0.09 0.11 0.12 0.11 0.10 0.08 0.10 0.08 0.10 0.10 0.10 0.13 0.12 0.12 0.10 0.09 0.12 0.09 0.09 0.13 0.13 0.12 0.17 0.20 0.19 0.18 0.18 0.16 0.14 0.11 0.12 0.15 0.15 0.14 0.11 0.09 0.09 0.09 0.07 0.07 0.08 0.07 0.08 0.09 0.08 0.15 0.15 0.15 0.15 0.17 0.18 0.19 0.20 0.21 0.21 0.22 0.24 0.24 0.24
0.38 0.35 0.34 0.34 0.38 0.45 0.47 0.47 0.41 0.33 0.27 0.22 0.19 0.18 0.24 0.19 0.23 0.21 0.25 0.22 0.21 0.19 0.14 0.12 0.11 0.12 0.09 0.09 0.08 0.09 0.11 0.09 0.10 0.10 0.08 0.09 0.07 0.12 0.11 0.10 0.14 0.13 0.13 0.14 0.10 0.11 0.12 0.09 0.10 0.13 0.14 0.16 0.19 0.19 0.16 0.19 0.19 0.14 0.13 0.16 0.12 0.10 0.09 0.11 0.10 0.07 0.07 0.07 0.07 0.07 0.08 0.08 0.09 0.10 0.14 0.14 0.14 0.15 0.16 0.18 0.19 0.20 0.21 0.22 0.23 0.24 0.25 0.25
0.38 0.33 0.27 0.34 0.43 0.47 0.46 0.45 0.37 0.29 0.24 0.19 0.19 0.17 0.21 0.21 0.25 0.24 0.26 0.24 0.22 0.18 0.14 0.14 0.11 0.12 0.11 0.09 0.09 0.10 0.11 0.09 0.10 0.10 0.08 0.09 0.08 0.11 0.10 0.12 0.12 0.15 0.15 0.14 0.12 0.12 0.12 0.09 0.09 0.13 0.13 0.15 0.16 0.15 0.11 0.13 0.18 0.18 0.17 0.14 0.16 0.13 0.11 0.10 0.10 0.10 0.09 0.07 0.07 0.07 0.08 0.07 0.11 0.12 0.13 0.13 0.14 0.15 0.17 0.18 0.18 0.20 0.21 0.22 0.23 0.24 0.24 0.24
0.33 0.28 0.26 0.37 0.43 0.47 0.46 0.42 0.32 0.27 0.22 0.18 0.19 0.18 0.24 0.21 0.24 0.28 0.27 0.25 0.20 0.18 0.16 0.14 0.14 0.11 0.11 0.11 0.11 0.09 0.10 0.10 0.09 0.09 0.09 0.09 0.08 0.11 0.11 0.14 0.12 0.14 0.15 0.15 0.12 0.14 0.11 0.11 0.08 0.12 0.14 0.14 0.11 0.13 0.11 0.12 0.12 0.13 0.14 0.13 0.13 0.13 0.14 0.12 0.12 0.10 0.09 0.08 0.08 0.08 0.08 0.08 0.11 0.14 0.14 0.14 0.15 0.17 0.17 0.18 0.19 0.20 0.22 0.23 0.24 0.24 0.24 0.24
0.36 0.27 0.27 0.37 0.41 0.45 0.42 0.34 0.26 0.22 0.21 0.22 0.22 0.20 0.21 0.20 0.24 0.25 0.28 0.29 0.24 0.25 0.19 0.16 0.15 0.13 0.12 0.11 0.10 0.11 0.10 0.10 0.10 0.09 0.09 0.09 0.09 0.08 0.13 0.13 0.14 0.13 0.15 0.14 0.13 0.13 0.11 0.11 0.09 0.11 0.10 0.10 0.11 0.14 0.14 0.14 0.14 0.13 0.12 0.11 0.12 0.11 0.10 0.09 0.08 0.12 0.11 0.10 0.09 0.09 0.08 0.10 0.13 0.16 0.16 0.16 0.17 0.18 0.19 0.19 0.20 0.21 0.22 0.23 0.24 0.25 0.24 0.23
0.28 0.22 0.25 0.37 0.40 0.41 0.33 0.24 0.24 0.26 0.22 0.20 0.19 0.22 0.21 0.29 0.24 0.24 0.26 0.28 0.25 0.21 0.25 0.20 0.18 0.16 0.14 0.13 0.12 0.11 0.10 0.10 0.10 0.09 0.09 0.08 0.10 0.09 0.13 0.16 0.15 0.15 0.13 0.11 0.12 0.15 0.13 0.12 0.10 0.09 0.10 0.10 0.12 0.13 0.15 0.15 0.15 0.14 0.14 0.13 0.14 0.13 0.12 0.10 0.08 0.09 0.11 0.11 0.13 0.12 0.11 0.09 0.15 0.17 0.17 0.17 0.18 0.19 0.20 0.20 0.20 0.21 0.23 0.24 0.24 0.24 0.24 0.24
0.26 0.23 0.32 0.36 0.40 0.37 0.29 0.23 0.25 0.23 0.22 0.23 0.28 0.27 0.28 0.26 0.23 0.25 0.22 0.24 0.21 0.23 0.21 0.19 0.17 0.16 0.16 0.14 0.13 0.12 0.11 0.10 0.10 0.09 0.09 0.09 0.10 0.11 0.13 0.15 0.16 0.15 0.14 0.13 0.14 0.15 0.15 0.12 0.10 0.10 0.11 0.12 0.13 0.14 0.15 0.15 0.15 0.13 0.14 0.15 0.14 0.12 0.12 0.11 0.11 0.13 0.11 0.12 0.12 0.13 0.11 0.11 0.16 0.19 0.18 0.19 0.20 0.20 0.21 0.21 0.21 0.22 0.23 0.24 0.24 0.24 0.23 0.23
0.27 0.25 0.27 0.35 0.38 0.36 0.25 0.19 0.19 0.21 0.22 0.24 0.24 0.22 0.27 0.24 0.22 0.20 0.20 0.21 0.20 0.19 0.18 0.17 0.17 0.18 0.14 0.16 0.14 0.11 0.12 0.09 0.11 0.10 0.10 0.11 0.10 0.18 0.18 0.16 0.16 0.14 0.13 0.13 0.12 0.18 0.11 0.12 0.10 0.09 0.09 0.09 0.10 0.12 0.12 0.13 0.14 0.12 0.12 0.13 0.14 0.14 0.14 0.15 0.15 0.15 0.12 0.12 0.14 0.13 0.11 0.13 0.17 0.19 0.20 0.21 0.21 0.20 0.21 0.22 0.23 0.22 0.23 0.23 0.23 0.23 0.23 0.23
0.28 0.29 0.28 0.29 0.34 0.32 0.23 0.23 0.21 0.20 0.20 0.20 0.20 0.19 0.20 0.20 0.24 0.23 0.21 0.19 0.22 0.20 0.18 0.16 0.17 0.17 0.15 0.16 0.14 0.14 0.13 0.10 0.09 0.11 0.10 0.10 0.10 0.15 0.17 0.16 0.17 0.14 0.17 0.18 0.15 0.17 0.12 0.12 0.10 0.08 0.07 0.07 0.07 0.07 0.08 0.09 0.10 0.12 0.13 0.13 0.14 0.14 0.14 0.14 0.13 0.14 0.12 0.14 0.16 0.14 0.14 0.16 0.18 0.20 0.20 0.21 0.21 0.21 0.22 0.22 0.23 0.23 0.23 0.23 0.23 0.23 0.23 0.23
0.23 0.19 0.23 0.23 0.27 0.28 0.27 0.29 0.25 0.21 0.20 0.20 0.18 0.18 0.19 0.17 0.21 0.23 0.23 0.20 0.21 0.20 0.19 0.18 0.18 0.18 0.15 0.14 0.13 0.12 0.11 0.13 0.10 0.09 0.10 0.10 0.11 0.13 0.16 0.18 0.17 0.16 0.18 0.18 0.17 0.17 0.13 0.13 0.12 0.10 0.09 0.08 0.09 0.10 0.12 0.12 0.12 0.10 0.12 0.14 0.14 0.16 0.17 0.17 0.17 0.15 0.14 0.17 0.16 0.15 0.17 0.17 0.17 0.18 0.19 0.20 0.20 0.20 0.20 0.21 0.21 0.22 0.22 0.23 0.23 0.23 0.23 0.22
0.24 0.19 0.21 0.18 0.22 0.24 0.21 0.24 0.22 0.22 0.18 0.21 0.16 0.19 0.16 0.17 0.18 0.19 0.25 0.17 0.21 0.19 0.18 0.17 0.16 0.14 0.13 0.13 0.12 0.11 0.12 0.11 0.12 0.11 0.10 0.11 0.12 0.13 0.17 0.18 0.19 0.19 0.19 0.19 0.18 0.16 0.14 0.11 0.11 0.11 0.10 0.10 0.11 0.12 0.13 0.13 0.12 0.13 0.13 0.14 0.16 0.16 0.18 0.18 0.17 0.16 0.19 0.17 0.14 0.17 0.18 0.17 0.17 0.18 0.19 0.19 0.19 0.20 0.20 0.21 0.21 0.21 0.22 0.22 0.22 0.22 0.22 0.21
0.18 0.21 0.22 0.24 0.19 0.17 0.17 0.17 0.21 0.19 0.20 0.21 0.18 0.20 0.17 0.17 0.18 0.16 0.20 0.21 0.21 0.22 0.16 0.16 0.16 0.15 0.14 0.12 0.12 0.10 0.10 0.10 0.11 0.10 0.12 0.12 0.12 0.14 0.14 0.17 0.17 0.19 0.19 0.17 0.19 0.15 0.13 0.10 0.11 0.11 0.10 0.12 0.13 0.13 0.14 0.14 0.14 0.15 0.15 0.16 0.16 0.19 0.20 0.19 0.19 0.20 0.19 0.17 0.15 0.17 0.18 0.17 0.17 0.17 0.18 0.19 0.19 0.19 0.20 0.20 0.21 0.22 0.22 0.22 0.22 0.21 0.20 0.20
0.21 0.21 0.21 0.25 0.19 0.20 0.19 0.20 0.21 0.20 0.19 0.19 0.18 0.18 0.17 0.17 0.17 0.18 0.17 0.18 0.19 0.18 0.19 0.13 0.13 0.15 0.14 0.14 0.13 0.10 0.11 0.09 0.09 0.11 0.11 0.11 0.12 0.12 0.12 0.14 0.18 0.20 0.19 0.17 0.17 0.17 0.14 0.11 0.12 0.12 0.11 0.13 0.14 0.15 0.16 0.15 0.15 0.16 0.17 0.18 0.20 0.21 0.21 0.20 0.20 0.20 0.19 0.18 0.18 0.18 0.17 0.17 0.17 0.18 0.19 0.20 0.21 0.21 0.21 0.22 0.22 0.22 0.21 0.21 0.20 0.20 0.19 0.19
0.16 0.16 0.16 0.21 0.20 0.19 0.20 0.20 0.20 0.19 0.17 0.20 0.17 0.17 0.18 0.17 0.16 0.18 0.19 0.18 0.15 0.17 0.21 0.15 0.15 0.15 0.15 0.15 0.14 0.11 0.11 0.12 0.11 0.11 0.13 0.13 0.12 0.13 0.12 0.12 0.13 0.18 0.19 0.15 0.16 0.17 0.14 0.11 0.17 0.15 0.13 0.12 0.15 0.16 0.17 0.17 0.17 0.17 0.19 0.22 0.22 0.21 0.21 0.21 0.20 0.20 0.20 0.19 0.18 0.18 0.17 0.16 0.19 0.21 0.21 0.22 0.22 0.22 0.22 0.21 0.21 0.21 0.20 0.20 0.19 0.19 0.19 0.19
0.21 0.22 0.20 0.16 0.14 0.16 0.18 0.18 0.17 0.17 0.16 0.17 0.16 0.17 0.17 0.17 0.16 0.18 0.17 0.20 0.17 0.16 0.18 0.15 0.16 0.15 0.16 0.15 0.14 0.13 0.15 0.15 0.14 0.14 0.15 0.14 0.11 0.14 0.12 0.12 0.15 0.13 0.16 0.15 0.16 0.16 0.15 0.14 0.15 0.15 0.13 0.13 0.16 0.17 0.17 0.19 0.20 0.20 0.21 0.22 0.21 0.20 0.19 0.19 0.19 0.20 0.18 0.17 0.17 0.17 0.15 0.16 0.19 0.21 0.21 0.21 0.20 0.19 0.19 0.19 0.19 0.19 0.20 0.20 0.19 0.19 0.19 0.19
0.25 0.28 0.26 0.19 0.14 0.18 0.15 0.18 0.18 0.17 0.14 0.17 0.16 0.16 0.16 0.16 0.17 0.18 0.15 0.18 0.19 0.20 0.19 0.18 0.18 0.16 0.14 0.14 0.13 0.14 0.16 0.17 0.16 0.17 0.17 0.17 0.17 0.17 0.16 0.16 0.17 0.15 0.15 0.16 0.18 0.16 0.16 0.16 0.15 0.16 0.14 0.14 0.17 0.19 0.20 0.20 0.20 0.18 0.20 0.20 0.20 0.20 0.20 0.20 0.20 0.20 0.19 0.18 0.16 0.14 0.15 0.18 0.19 0.20 0.18 0.18 0.18 0.18 0.18 0.18 0.18 0.19 0.20 0.20 0.19 0.19 0.19 0.20
Wind_Speed
18 18 17 17 16 15 14 14 13 13 12 12 11 11 10 10 10 10 9 9 8 8 7 7 7 7 6 6 6 6 6 6 6 6 7 9 11 12 13 13 13 12 12 11 11 10 10 10 9 9 8 8 9 8 8 8 8 9 9 10 10 10 10 10 11 11 11 13 13 12 13 14 14 13 14 15 15 15 17 18 18 18 19 20 19 20 21 21
17 17 16 16 16 15 14 14 13 12 12 12 11 10 9 10 9 9 9 8 8 8 8 7 7 7 6 6 6 6 7 7 7 7 8 10 11 12 12 12 11 11 11 10 10 10 10 9 9 9 8 8 9 8 8 8 9 9 9 10 10 9 10 10 11 11 12 13 14 14 13 14 15 15 15 16 16 16 18 19 18 19 20 20 20 21 21 21
16 16 15 15 15 14 13 13 12 12 13 12 11 10 10 9 9 9 8 8 8 8 8 7 7 7 7 7 7 7 8 8 8 8 9 10 11 11 11 10 10 10 10 10 10 10 10 9 9 9 9 9 9 8 9 9 9 9 9 10 9 10 10 10 11 12 13 14 15 15 14 15 16 16 16 17 19 19 20 19 19 20 19 19 20 20 21 21
16 15 14 14 14 13 12 12 12 13 12 12 11 10 10 9 9 8 8 8 8 7 7 7 7 7 7 7 7 7 7 8 7 8 8 10 10 10 10 10 10 10 10 10 10 10 9 9 9 9 9 9 8 8 9 9 9 9 9 10 9 10 11 11 12 12 13 14 15 16 16 16 16 16 17 17 19 19 19 18 18 20 20 20 20 20 21 21
16 14 13 13 13 12 12 12 12 12 11 11 11 10 9 9 8 8 8 7 7 7 7 7 7 7 7 7 6 6 7 7 6 7 8 10 10 9 9 9 10 9 9 10 10 9 9 8 8 8 9 8 8 9 9 9 10 9 9 10 10 11 12 11 12 13 14 14 15 16 16 17 17 17 17 17 18 18 17 17 18 20 20 20 20 20 20 20
15 14 13 12 11 12 12 12 11 11 10 10 10 9 9 8 8 7 7 7 7 7 7 6 6 6 6 6 5 6 6 6 6 7 9 10 10 9 9 9 9 9 9 9 9 9 8 8 8 8 8 8 9 9 9 9 10 10 10 10 10 11 12 12 12 13 14 14 15 15 16 16 16 16 14 15 17 17 17 16 18 18 17 18 18 18 18 18
15 14 13 12 12 12 12 11 10 10 10 10 9 9 8 8 7 7 7 7 7 6 6 6 6 6 5 5 5 5 6 6 6 8 9 10 9 8 8 8 8 8 9 9 9 8 8 8 8 8 8 8 9 9 9 9 9 10 10 9 10 11 12 12 12 13 13 14 14 14 14 14 14 13 12 14 16 16 16 15 15 15 15 15 15 16 16 16
15 14 13 12 11 11 10 10 10 9 9 9 8 8 8 7 7 7 7 6 6 6 6 6 6 5 5 5 5 5 5 5 7 8 10 10 9 8 8 8 8 8 8 8 9 8 8 8 8 8 9 8 8 8 8 9 9 10 10 9 9 10 11 12 12 11 12 12 12 12 13 12 12 12 12 15 15 14 14 14 14 14 14 14 15 15 15 15
15 14 13 11 11 10 9 9 9 8 8 8 8 8 7 7 6 6 6 6 6 6 6 5 5 5 5 5 5 5 5 6 7 9 9 9 8 7 7 7 8 8 8 8 8 8 8 8 8 9 8 8 8 8 8 9 9 9 9 9 9 9 9 11 10 10 11 10 11 12 12 12 11 11 12 13 13 13 14 14 14 15 15 15 16 16 16 16
14 14 13 11 10 10 9 8 8 8 7 7 7 7 7 6 6 5 5 5 5 5 5 5 5 5 5 5 5 5 5 6 7 8 9 8 7 7 7 7 8 8 8 8 8 8 8 8 8 8 7 7 7 7 8 9 8 8 8 8 8 8 8 9 8 9 10 9 10 13 13 12 10 11 11 11 12 14 16 16 15 16 16 16 16 16 17 17
13 13 12 10 9 9 8 8 7 7 7 7 6 6 6 5 5 5 5 5 5 5 5 5 5 5 5 5 5 5 6 6 7 8 8 7 6 6 7 7 8 8 8 8 8 8 8 7 7 8 7 7 6 7 7 7 7 7 7 7 7 7 7 8 8 9 10 8 11 13 12 12 10 10 11 12 13 15 16 17 16 16 16 16 16 16 16 16
13 12 11 9 9 9 8 7 6 6 6 6 6 5 5 5 5 5 5 5 4 4 4 4 5 4 4 4 5 5 5 6 6 7 7 6 6 6 7 7 8 8 8 8 8 8 8 7 7 7 7 6 6 6 6 6 6 6 6 7 7 7 6 9 9 9 11 9 12 13 11 11 10 11 12 13 14 16 17 17 16 16 15 15 15 15 16 16
11 10 9 9 8 8 7 6 6 6 6 6 5 5 5 5 5 5 5 4 4 4 4 4 4 4 4 4 4 4 5 5 5 6 7 6 6 6 7 7 8 8 8 8 7 7 7 6 6 6 5 5 5 5 5 5 6 5 6 7 8 7 7 9 9 10 10 9 13 13 10 10 10 11 12 13 15 17 17 16 15 15 15 15 14 15 15 15
9 8 8 8 8 7 7 6 6 6 6 6 6 6 6 6 5 4 4 4 4 4 3 3 4 4 4 4 4 4 5 5 5 6 7 7 6 6 7 7 8 8 8 7 6 6 6 5 5 4 4 5 4 4 4 5 6 6 6 7 7 8 7 8 9 11 10 9 13 13 10 11 12 11 12 14 16 16 16 15 15 16 15 15 14 14 15 15
8 7 7 7 7 7 6 6 6 6 6 6 6 6 6 5 4 4 4 3 3 3 3 4 4 4 4 3 4 4 5 5 6 6 7 7 7 7 7 7 7 7 7 6 6 5 5 5 4 4 4 4 3 4 5 5 6 6 7 6 7 8 7 7 8 10 10 11 13 12 11 12 12 11 13 15 16 15 15 15 15 16 15 15 14 14 14 14
7 7 7 7 7 6 6 6 7 7 7 6 6 6 5 4 4 3 3 3 3 3 4 4 4 4 3 3 3 4 5 5 6 6 6 6 7 7 6 6 6 6 6 6 5 5 5 4 4 4 4 4 4 5 5 5 5 6 7 7 7 8 9 8 8 9 11 12 13 12 12 13 13 14 15 16 16 15 14 15 15 16 15 14 14 14 14 14
7 7 7 7 6 6 6 6 7 7 6 6 6 6 5 4 4 3 3 3 3 3 3 3 3 4 3 3 4 4 5 5 6 6 5 6 6 6 6 6 6 6 6 5 5 5 6 5 4 4 4 4 4 5 5 5 6 6 7 7 7 8 9 10 9 10 12 12 12 12 13 14 16 17 17 16 15 14 14 15 15 16 15 14 14 14 14 14
7 6 6 6 6 6 6 6 6 6 6 6 6 5 4 3 3 3 3 3 3 3 3 3 3 4 3 3 4 5 5 6 6 6 5 5 6 6 5 5 6 5 5 5 5 5 5 4 4 4 4 4 4 5 6 6 6 7 7 8 8 9 9 11 10 11 13 13 13 13 14 16 18 18 16 16 15 14 14 15 15 15 15 14 14 14 14 14
6 6 6 6 5 5 6 6 6 6 6 6 5 5 4 3 2 3 3 3 4 4 4 3 3 4 3 3 5 6 5 5 6 5 5 6 6 5 5 5 5 5 5 5 5 5 5 4 4 4 4 4 5 6 6 6 7 7 8 8 9 10 10 11 11 11 14 15 14 14 15 18 19 18 16 16 15 14 14 15 15 15 15 15 14 14 14 14
5 5 5 5 5 5 5 6 6 6 6 5 4 4 3 3 3 3 3 3 3 3 3 3 3 4 4 4 5 6 5 5 5 5 6 6 6 5 5 5 5 5 5 5 5 5 5 4 4 5 4 4 5 6 6 6 7 7 8 9 10 11 12 12 12 12 14 16 14 14 17 19 19 18 16 16 15 15 15 15 15 16 15 15 15 14 14 13
4 4 4 4 4 4 5 5 6 6 5 4 4 3 4 4 4 3 3 3 3 3 3 3 4 4 4 4 5 6 5 5 5 6 6 6 5 5 5 5 4 5 5 5 5 5 5 5 4 5 5 4 5 6 6 7 7 8 9 10 11 11 12 12 13 13 15 17 16 16 18 19 18 17 16 16 15 15 16 16 16 16 16 15 15 14 13 13
4 3 3 4 4 4 4 5 5 5 5 4 4 3 4 4 4 4 4 4 4 4 4 4 4 4 5 5 5 5 5 5 5 6 6 6 5 5 5 5 5 5 5 5 5 5 5 5 4 4 5 5 5 7 8 8 8 9 10 11 12 12 14 13 13 14 16 17 18 19 20 19 17 17 16 16 15 15 16 16 16 17 16 15 14 14 13 13
3 3 3 4 4 4 4 4 5 4 4 4 4 4 4 4 4 4 4 4 4 5 5 5 5 5 5 5 5 5 5 5 5 6 7 6 5 5 5 4 4 5 5 5 6 6 6 6 5 5 5 5 7 8 9 9 10 11 11 12 13 13 14 15 15 16 17 17 19 20 20 18 16 16 15 15 15 15 15 16 16 16 16 15 14 14 14 14
3 2 2 3 3 4 3 4 4 4 4 4 4 4 3 3 3 4 5 5 5 6 6 6 6 6 5 5 6 6 5 5 5 6 7 6 4 5 5 4 5 5 6 6 6 6 7 7 6 6 7 8 8 8 9 11 11 12 12 13 15 14 15 16 18 20 19 17 19 20 20 18 15 15 15 15 15 15 16 16 16 16 16 15 14 14 14 15
3 2 2 2 3 3 3 3 3 3 3 3 3 3 3 3 4 5 5 6 6 6 6 6 6 6 6 6 6 6 5 5 6 6 6 6 5 5 5 5 6 6 6 7 7 7 7 7 7 7 8 9 9 10 10 11 13 13 13 14 15 15 16 18 20 21 20 17 18 19 20 17 15 16 16 15 16 16 17 17 17 17 17 16 15 15 15 15
3 2 1 1 2 3 3 3 3 3 3 3 3 3 3 4 4 5 6 6 7 6 7 7 7 7 7 7 7 6 6 6 6 6 6 6 5 5 5 6 7 7 6 7 8 8 7 7 8 8 9 9 10 12 11 11 14 14 14 14 15 16 17 19 21 21 20 19 19 19 19 18 18 18 17 16 17 17 17 18 17 18 17 17 17 16 16 16
3 2 1 1 2 3 3 3 3 4 3 4 4 4 4 5 5 6 7 7 7 6 7 7 7 7 7 7 7 7 7 7 7 6 6 6 6 6 6 6 7 7 7 8 9 8 7 8 9 9 10 10 12 13 12 12 14 15 15 15 16 17 19 20 21 21 21 23 21 19 18 19 20 18 16 16 17 18 18 18 18 18 18 18 17 17 17 17
3 2 1 0 1 2 2 3 4 4 4 4 4 5 5 5 6 7 7 7 6 6 7 7 7 7 7 8 7 7 7 7 7 7 7 7 7 7 8 8 8 7 8 9 10 9 9 9 10 10 11 12 12 13 12 13 15 16 15 16 17 19 20 21 21 22 22 22 21 18 17 19 19 17 16 17 18 19 19 19 19 19 19 19 19 18 18 18
3 2 1 1 1 2 2 3 4 5 5 5 5 6 6 6 7 7 6 7 6 6 7 7 8 8 9 9 8 8 8 8 8 8 8 8 8 8 8 8 8 8 8 11 11 10 10 11 11 11 12 13 12 13 14 15 16 15 15 17 18 19 20 21 22 22 21 20 21 18 16 19 20 18 17 18 20 20 19 19 19 20 20 20 20 20 20 19
4 3 2 2 2 3 3 4 4 5 5 6 6 6 6 7 7 6 6 7 7 7 8 8 8 9 9 9 9 8 9 9 9 9 9 9 9 8 8 9 9 9 10 11 11 11 11 12 13 13 13 13 12 13 15 15 16 16 17 19 20 20 21 21 21 21 20 20 20 18 18 19 21 19 18 19 20 19 18 19 20 20 21 21 21 21 21 20
4 3 3 3 3 4 4 5 5 5 5 6 6 6 7 7 7 7 7 8 8 8 9 9 9 10 9 9 9 9 9 10 10 10 9 10 10 9 9 10 10 11 12 12 12 12 11 12 13 13 13 13 13 14 15 16 16 17 19 21 21 21 20 20 19 19 20 21 19 19 20 20 21 21 20 20 21 18 18 19 20 20 21 22 22 22 21 21
4 4 3 4 4 5 5 6 6 5 5 6 6 7 7 8 8 8 8 9 8 8 8 9 9 9 9 9 10 10 10 11 10 11 11 11 11 11 11 12 12 12 13 12 12 13 13 13 14 14 14 14 14 15 15 16 17 18 19 20 21 21 21 21 20 19 21 21 20 21 21 22 24 25 23 22 21 20 20 20 20 20 21 22 23 23 22 23
5 5 5 4 5 6 6 6 6 6 6 6 6 7 8 8 8 9 9 10 9 9 10 10 10 10 10 11 11 11 11 12 11 11 12 12 13 12 12 13 13 14 14 13 14 14 14 14 13 14 14 15 15 16 17 17 17 18 19 19 20 20 21 22 22 22 23 22 22 22 22 24 26 26 25 23 21 20 20 20 20 21 22 23 23 23 24 24
6 5 5 5 5 6 6 7 7 7 7 7 8 8 8 9 9 9 10 11 11 11 11 11 11 12 12 12 12 12 13 13 12 13 13 13 14 14 13 13 14 14 14 15 15 15 16 15 14 14 14 14 16 17 18 18 18 19 20 20 20 20 20 22 23 23 25 25 23 22 23 24 25 25 25 24 21 21 21 20 21 22 23 23 24 25 25 26
6 6 6 6 6 7 7 8 8 8 8 8 9 9 10 10 10 10 11 11 11 12 12 12 13 13 13 13 13 13 14 13 13 14 14 14 15 15 14 14 14 15 14 15 15 15 16 17 15 15 16 15 17 17 18 19 19 20 20 20 21 21 21 22 23 24 25 26 25 23 25 26 26 26 26 25 23 22 21 22 23 24 24 25 26 27 27 27
7 7 7 8 8 8 9 9 9 9 9 10 10 11 11 11 11 11 12 12 12 13 13 13 13 14 14 14 13 14 14 15 15 15 15 15 16 16 15 15 15 16 16 16 16 15 17 17 15 16 17 17 18 19 20 21 20 20 21 21 22 23 23 23 24 23 23 25 26 25 27 28 28 28 26 24 23 23 23 24 25 25 25 26 27 28 28 28
8 8 9 9 9 10 10 9 10 10 10 11 11 12 12 13 12 13 13 13 13 14 14 14 14 14 14 14 14 14 15 15 15 16 16 15 16 15 15 15 15 16 16 17 17 17 18 19 18 18 18 18 19 20 21 22 22 22 22 23 23 23 23 22 23 24 23 25 27 27 29 29 27 27 27 25 25 25 25 26 26 26 26 27 28 28 29 29
9 9 10 10 10 10 10 10 10 10 11 12 13 13 13 13 13 13 13 14 14 14 15 15 15 14 15 15 15 14 15 15 15 16 16 16 16 14 14 15 15 15 16 17 18 18 19 21 20 19 19 19 20 21 22 22 23 24 24 24 24 23 23 21 22 24 24 26 27 27 30 30 28 28 28 27 27 26 26 26 26 27 27 28 29 29 30 30
11 11 11 11 11 11 11 11 11 11 12 13 13 14 14 14 14 14 14 15 15 15 16 16 15 15 15 15 16 15 16 16 15 16 16 16 16 15 15 16 16 16 17 18 18 18 19 21 20 20 20 20 20 22 23 22 22 24 25 25 24 24 24 23 23 24 25 27 29 28 30 31 30 29 27 27 27 26 26 27 28 28 28 29 29 30 30 30
12 12 12 12 12 12 12 12 12 12 13 14 14 14 15 15 15 15 16 16 16 17 17 16 16 16 17 16 16 16 16 17 17 17 17 17 17 16 16 17 16 17 18 18 19 19 19 20 21 21 21 22 22 22 24 24 23 24 25 25 24 24 25 25 26 26 25 27 28 28 31 33 30 29 28 28 29 28 28 29 29 29 29 29 30 30 31 31
13 13 13 13 13 13 13 13 13 14 14 14 15 15 15 16 15 16 17 17 17 17 17 17 17 17 17 17 17 17 17 18 17 18 18 18 18 17 17 17 17 17 18 18 19 20 20 21 23 23 23 25 25 24 25 26 25 26 26 26 25 25 24 25 27 27 26 27 27 27 32 35 31 30 32 32 31 31 30 30 30 29 29 30 31 31 31 32
13 14 14 14 14 14 13 14 14 15 15 15 15 16 16 16 16 16 16 17 18 18 17 17 17 17 17 17 17 17 18 18 18 18 19 18 18 18 18 18 19 18 19 19 20 20 21 22 24 26 26 26 25 25 25 26 26 27 27 27 27 26 26 26 27 27 27 28 28 28 33 36 34 33 35 34 34 32 31 30 30 29 30 31 31 32 33 34
14 14 14 14 14 14 14 14 15 15 15 15 16 16 16 16 16 16 17 17 17 17 17 17 17 17 17 17 17 17 17 18 18 18 18 18 18 18 19 19 19 19 20 20 20 20 21 22 24 27 28 26 25 25 24 24 25 27 28 28 27 28 28 28 28 29 28 28 29 29 32 37 36 35 36 35 34 33 31 31 31 30 31 31 32 33 34 35
14 14 14 14 14 14 14 15 15 16 16 16 16 16 16 17 16 16 17 17 17 16 16 17 16 16 16 16 17 17 17 18 18 17 18 18 18 18 19 20 20 20 20 20 21 20 21 22 23 25 27 26 25 24 24 24 26 28 29 28 28 28 28 29 30 30 30 32 32 31 34 38 38 36 36 35 34 34 33 32 32 32 32 32 33 34 35 36
14 14 14 15 15 15 15 16 15 15 16 16 16 16 16 17 17 17 17 16 16 16 16 16 15 16 16 16 17 17 18 18 18 18 18 18 19 19 19 20 20 20 21 21 22 22 23 24 23 24 25 25 26 26 26 27 28 29 29 28 28 28 27 29 31 30 31 33 34 33 36 39 39 37 36 36 35 35 34 34 34 33 33 34 35 35 36 38
15 15 15 15 15 15 15 16 16 16 16 16 17 16 16 17 17 17 17 16 16 16 16 16 15 15 16 16 17 18 18 18 18 19 19 19 20 19 19 20 21 21 21 22 22 23 24 25 25 26 27 28 30 29 28 29 32 32 31 30 30 30 30 30 30 31 33 33 34 36 39 41 43 40 37 35 35 35 35 34 34 34 34 35 36 37 38 39
15 15 16 16 16 16 16 16 17 17 17 17 17 17 17 17 17 17 16 16 16 16 16 16 15 16 16 15 17 17 17 17 18 19 20 20 20 20 20 21 21 22 22 23 23 23 24 26 26 27 31 32 32 32 31 31 34 36 34 32 31 30 30 30 32 35 34 31 35 40 40 41 43 42 37 35 35 36 36 35 34 34 35 36 38 39 40 41
16 16 16 16 16 16 17 17 17 17 17 17 18 17 17 17 17 17 16 16 16 16 17 16 16 17 17 16 16 17 17 17 18 19 19 20 20 20 21 21 21 22 23 23 23 23 25 27 26 27 31 32 31 33 33 33 34 35 34 33 33 31 30 32 35 37 34 32 37 42 42 42 43 40 37 36 37 37 36 36 35 36 37 38 39 40 41 41
17 17 17 17 17 17 17 18 17 17 17 18 18 18 17 17 17 17 16 16 16 16 16 17 17 17 17 16 17 17 17 18 19 20 19 20 21 21 22 22 21 22 23 22 23 24 25 26 26 27 32 33 31 31 33 33 34 34 33 34 35 33 32 33 36 37 35 36 40 42 43 44 41 38 37 36 36 36 35 35 36 37 38 39 40 41 41 42
16 17 17 17 17 17 17 17 17 17 17 18 18 18 17 17 17 17 16 16 17 16 15 17 17 16 16 16 17 18 18 18 20 20 19 20 21 21 22 22 22 22 24 23 24 24 25 26 26 26 31 33 30 29 31 32 33 35 35 35 34 33 32 33 35 36 35 37 39 40 41 41 38 36 36 35 35 36 36 36 37 38 39 40 41 42 43 43
15 16 16 16 16 16 17 17 17 18 17 17 17 17 17 17 17 17 17 17 17 16 15 17 17 16 16 17 18 20 20 20 21 22 21 21 22 22 22 22 22 22 24 24 24 24 25 26 26 27 30 32 29 29 32 33 34 35 34 33 32 32 32 33 33 33 33 35 37 38 37 36 36 37 36 36 37 38 38 39 40 40 41 42 43 44 44 45
15 15 15 16 16 16 16 16 16 17 17 17 17 17 17 17 16 16 17 16 16 16 17 17 16 16 16 17 18 20 21 21 22 22 22 22 23 23 22 22 22 22 23 23 24 25 25 26 27 27 29 31 30 30 34 36 35 32 28 29 33 33 33 34 33 31 33 35 35 35 34 35 37 38 38 39 40 40 40 42 42 43 43 43 44 45 46 46
Wind_Direction
181 183 187 191 194 196 199 202 203 203 202 202 205 210 212 214 215 217 217 219 220 220 220 221 224 227 230 233 239 243 249 262 276 289 291 293 297 299 301 303 305 306 306 305 306 303 300 300 299 296 293 298 302 300 299 302 299 293 293 294 294 294 295 294 292 294 296 297 297 299 301 297 295 295 294 290 283 282 282 279 278 278 277 277 279 279 280 281
179 182 186 190 192 195 198 199 198 198 196 196 202 208 210 211 211 213 214 215 216 217 219 221 225 230 235 239 244 247 256 269 282 295 296 297 302 304 305 306 307 308 307 306 307 306 302 300 299 295 292 297 301 299 296 299 298 296 297 295 296 297 299 299 297 297 295 298 299 298 298 295 296 297 296 291 287 287 285 282 279 279 278 277 279 279 280 280
176 178 184 189 191 190 191 192 193 194 193 194 200 205 206 208 208 210 211 212 214 217 221 225 230 236 241 245 250 254 264 273 282 293 298 303 308 309 308 309 308 308 307 306 306 305 303 300 296 292 291 295 299 296 294 298 298 298 297 295 299 301 299 298 297 298 298 299 299 298 298 295 295 296 294 292 290 287 285 285 284 283 283 281 280 280 281 280
173 174 180 183 182 181 183 185 187 189 191 194 197 200 202 203 204 205 208 211 216 221 225 230 236 241 246 251 255 258 267 273 281 292 301 310 312 310 310 310 308 306 306 306 305 304 304 300 296 293 291 295 299 295 295 300 300 297 296 299 305 302 299 302 301 301 301 300 299 300 299 296 298 296 292 291 291 289 288 288 286 285 286 284 283 282 282 282
170 170 171 172 175 180 181 180 181 185 190 193 195 196 198 198 200 204 209 215 222 226 230 236 241 246 249 251 252 255 265 272 282 293 305 314 312 310 309 309 309 307 305 305 304 304 303 300 296 293 292 295 295 294 298 302 301 296 298 304 306 301 302 308 306 304 304 302 300 301 301 300 301 296 292 291 290 291 294 292 288 288 288 287 287 285 284 283
169 168 164 162 168 174 175 177 180 184 188 192 194 193 195 197 202 208 214 221 227 231 235 241 244 244 243 244 247 252 266 277 286 295 308 315 312 309 309 310 309 307 306 305 305 304 303 300 295 293 296 298 296 297 301 301 298 296 300 304 303 303 306 310 309 306 306 304 304 305 304 304 303 300 299 294 288 291 296 297 295 294 294 293 291 288 287 286
170 168 164 158 160 164 168 175 179 182 184 186 189 191 195 200 206 212 218 225 231 236 239 240 238 234 232 238 247 257 270 280 287 297 311 315 312 308 308 311 309 308 309 309 307 303 303 301 296 295 297 298 297 299 303 300 297 297 301 305 304 306 309 311 310 308 309 309 311 310 307 308 309 309 309 299 293 297 304 306 304 301 300 298 294 292 290 290
172 171 166 160 159 162 167 172 174 179 180 183 188 193 199 203 210 216 223 229 233 236 234 231 229 227 231 240 250 261 272 281 291 302 312 315 312 306 305 310 312 313 315 315 309 302 302 302 297 293 297 301 296 298 301 298 299 301 304 307 308 310 313 315 313 312 316 316 316 312 310 312 312 314 309 301 303 309 310 309 308 305 304 301 299 298 296 294
170 173 169 163 161 163 167 169 173 178 181 187 192 196 201 206 212 218 225 228 228 226 222 222 223 226 234 244 255 264 275 286 295 305 313 313 308 306 307 311 315 316 317 318 313 303 300 299 297 292 296 301 295 299 301 296 303 308 310 311 311 314 319 321 318 320 323 322 324 320 315 315 315 317 308 302 310 315 310 308 309 308 305 303 302 300 298 295
165 170 168 163 163 166 169 170 174 179 185 191 194 198 201 205 212 217 220 217 215 213 214 219 220 227 238 250 261 271 281 288 296 307 316 314 304 305 312 314 316 315 314 316 314 309 304 299 298 296 297 301 297 303 305 302 309 313 314 315 318 320 325 329 325 330 330 323 331 328 318 318 319 314 309 311 315 313 312 310 309 308 305 303 301 299 298 295
162 164 164 163 164 168 170 173 176 181 186 189 193 197 198 203 206 206 205 203 205 209 214 220 223 235 248 259 267 277 285 289 298 309 317 314 305 307 312 313 314 312 312 314 313 312 309 302 298 298 300 299 298 309 311 310 314 317 315 312 323 324 325 335 330 333 334 324 332 328 316 319 320 309 310 317 316 314 314 312 311 310 307 304 300 299 298 297
155 159 163 165 167 170 173 176 179 182 185 188 191 192 191 193 192 191 193 197 204 211 218 223 229 244 254 265 275 280 286 292 300 311 318 316 309 309 310 311 313 313 311 311 312 312 310 304 300 302 304 299 299 310 314 317 318 322 323 314 320 320 321 338 333 330 331 324 331 326 313 318 316 309 315 319 317 316 316 315 317 317 313 309 304 300 299 298
153 159 163 167 171 172 174 177 178 180 182 183 182 180 179 179 180 185 191 197 206 212 218 224 236 253 260 269 276 280 289 299 305 313 321 317 307 308 310 310 312 314 313 313 313 312 311 308 307 311 311 306 309 313 315 325 321 319 327 322 320 315 318 335 332 325 325 324 331 325 316 323 318 313 320 322 321 319 319 321 323 322 321 317 311 307 304 302
155 160 164 168 170 171 172 175 175 174 174 173 172 170 170 172 177 185 193 199 208 212 221 232 247 260 267 271 270 282 297 302 312 318 319 316 307 307 312 313 315 316 316 318 318 314 314 314 317 323 321 321 319 315 316 325 324 319 321 321 321 320 323 335 333 329 327 327 332 325 317 326 325 322 323 323 323 322 321 324 325 325 323 320 317 313 310 308
153 157 161 165 167 169 172 173 171 169 168 167 167 167 168 172 179 190 199 205 213 223 236 247 260 263 262 267 264 284 302 304 317 322 317 319 316 311 314 315 316 318 318 320 320 318 315 315 321 324 324 323 310 308 316 320 327 326 320 319 324 324 325 332 335 336 334 326 326 322 317 322 323 323 324 323 324 322 321 324 326 326 325 323 320 318 316 314
150 154 158 161 165 166 168 170 167 166 166 165 165 168 172 178 187 197 205 216 228 241 251 255 261 260 258 264 265 286 305 307 315 318 316 322 321 315 314 315 315 316 317 318 317 317 320 321 322 322 319 314 311 312 315 317 324 327 323 323 325 324 325 328 330 334 332 323 321 319 316 318 320 322 324 326 326 322 322 325 327 327 326 326 323 321 320 319
146 150 154 158 161 162 164 167 165 165 165 165 168 172 179 185 191 199 209 227 238 243 253 258 255 254 265 270 269 291 305 307 314 316 315 319 321 318 314 314 315 314 314 315 313 313 320 321 311 317 325 324 321 313 311 320 325 328 327 325 324 321 321 325 325 325 325 320 320 318 310 311 315 319 324 327 326 322 323 325 326 326 326 325 324 323 322 322
141 146 149 153 156 158 161 164 165 166 165 166 170 174 180 188 199 217 232 240 241 242 249 263 255 250 269 276 278 297 303 306 314 313 312 315 319 322 320 317 315 312 309 310 316 316 317 318 307 311 321 324 324 315 316 327 326 324 324 324 324 320 316 321 325 327 327 320 316 314 309 310 314 317 322 326 324 321 322 323 323 324 324 323 323 322 323 323
139 142 146 149 153 154 157 160 162 162 161 163 166 171 183 196 219 242 253 249 245 248 253 262 262 261 278 287 290 300 300 304 312 312 314 314 313 318 322 321 316 314 309 304 316 323 317 314 307 307 313 319 325 324 326 330 325 323 322 322 322 320 317 319 324 329 328 320 314 314 312 312 313 316 320 321 318 318 318 320 321 322 321 320 321 320 321 323
139 141 146 150 155 156 155 158 161 162 163 166 175 190 209 222 243 256 263 261 248 252 260 262 266 272 281 287 296 303 296 298 312 317 318 312 307 310 317 320 315 317 317 309 317 324 314 308 308 312 314 316 320 323 327 328 325 322 320 318 316 316 317 320 323 325 325 321 316 315 313 310 311 314 318 315 312 315 316 318 320 320 319 318 318 319 320 322
139 145 149 151 155 158 159 163 168 173 178 186 200 222 236 241 256 255 253 262 252 254 266 265 267 275 279 286 300 304 291 292 309 317 319 311 301 302 312 316 307 314 323 313 311 313 307 307 312 316 319 320 315 313 317 318 319 317 316 317 314 313 315 321 324 322 325 323 317 316 313 310 311 314 316 313 311 313 314 314 316 318 317 316 316 317 318 319
130 142 148 153 157 162 167 173 178 186 197 208 220 241 254 255 261 259 257 263 256 256 264 264 267 276 280 284 295 299 286 287 302 314 319 312 302 304 311 314 307 313 322 310 303 305 305 306 312 316 317 321 315 308 310 312 312 313 314 315 314 315 315 318 323 321 321 319 316 318 315 312 314 315 315 313 310 310 310 310 311 312 314 313 313 314 314 316
108 125 144 156 162 168 174 181 188 198 212 225 237 253 264 262 259 262 267 269 262 257 260 263 268 276 282 285 290 292 286 287 297 313 321 311 304 309 310 315 315 313 313 305 300 301 303 308 312 309 302 304 308 307 308 309 308 308 311 312 312 317 315 314 320 319 317 315 314 315 312 310 313 313 314 312 306 306 307 308 308 308 310 311 310 311 312 314
84 104 136 157 167 175 181 189 198 213 228 240 250 259 266 266 266 271 275 277 270 261 261 266 270 276 283 287 287 287 287 289 294 308 320 313 304 306 311 318 312 305 307 306 301 300 307 312 308 302 299 300 305 305 305 307 308 306 304 307 310 314 312 311 317 317 315 314 313 313 310 307 306 305 309 308 302 302 304 304 306 307 307 307 307 309 310 312
67 82 117 159 178 187 194 201 211 225 236 245 251 256 263 273 282 283 282 282 276 265 262 265 270 274 279 285 286 283 281 287 292 301 312 313 305 301 309 312 304 301 304 303 299 299 306 307 298 295 298 299 300 303 303 306 311 308 303 306 310 313 311 311 316 316 314 313 315 317 313 308 305 302 305 303 298 300 302 302 303 303 303 303 304 306 308 309
52 59 93 166 190 196 203 216 225 231 244 252 252 257 270 283 293 292 289 287 280 270 265 265 270 273 275 284 287 277 273 280 288 294 301 305 300 294 298 304 305 304 299 300 302 300 302 302 298 297 296 296 297 300 300 303 309 311 310 311 312 312 311 312 315 315 313 312 315 315 310 307 305 301 301 300 297 298 299 299 298 298 300 301 302 303 305 307
36 41 59 171 198 206 219 237 234 236 258 262 259 270 277 283 294 296 294 289 282 276 271 267 269 274 275 281 281 271 274 281 281 285 293 298 295 290 292 295 299 302 297 297 302 301 298 295 295 297 297 295 297 300 298 296 304 311 313 313 312 311 311 312 312 311 311 312 312 308 303 302 303 303 303 297 295 296 294 294 295 294 296 297 299 301 303 304
20 22 9 276 215 221 244 257 243 246 267 267 266 278 281 284 292 294 292 288 286 283 279 273 270 275 281 278 273 269 276 282 278 279 286 292 292 288 290 292 293 298 296 292 298 302 298 290 287 292 296 295 298 306 301 293 301 311 313 313 314 313 312 311 310 309 310 311 310 306 302 302 303 307 310 300 293 292 289 289 290 290 292 294 296 299 301 301
4 354 323 281 251 250 267 274 262 259 268 270 273 281 283 286 290 293 291 287 287 285 282 280 272 276 283 277 270 270 273 276 279 281 281 284 289 290 289 292 294 297 297 295 298 301 299 296 294 293 296 298 303 310 306 299 303 310 311 312 314 313 312 311 309 310 310 308 307 304 299 302 305 306 307 301 295 292 289 289 288 288 290 291 294 296 298 297
351 335 305 273 264 267 276 286 284 273 269 269 276 284 285 288 290 291 290 287 288 287 284 282 277 281 284 273 268 271 271 273 278 280 278 277 285 291 289 290 292 293 295 296 297 299 300 300 299 297 299 304 307 309 309 307 308 307 307 309 310 310 311 310 309 311 309 306 308 307 301 303 307 307 304 302 303 298 293 291 288 287 288 289 292 294 294 294
343 332 305 279 273 275 280 287 289 284 275 272 278 284 287 292 291 285 287 290 292 290 287 284 280 283 284 272 268 273 272 274 279 279 276 276 280 285 285 286 289 290 291 291 293 297 297 295 297 298 299 302 303 304 308 309 307 305 307 310 310 311 311 309 309 311 307 308 313 313 307 302 303 307 308 309 311 304 294 291 287 285 286 287 290 292 292 292
333 330 316 294 282 282 284 285 287 286 281 278 283 288 289 292 288 282 288 293 293 292 292 290 284 281 282 274 270 273 273 273 278 279 277 277 277 279 282 285 288 289 291 292 293 294 292 293 299 300 297 296 296 300 304 305 304 303 306 310 311 312 312 309 310 310 307 310 313 312 309 301 298 303 307 308 307 301 296 293 287 284 285 286 289 290 290 290
323 320 316 304 290 285 284 283 282 282 282 282 286 294 296 291 287 286 290 291 291 292 293 292 287 282 279 275 270 271 271 271 275 276 275 277 278 279 282 286 287 288 291 294 295 294 294 297 297 295 296 294 292 297 301 303 302 301 305 308 308 312 312 309 310 310 308 310 311 310 308 302 301 305 309 309 306 301 298 295 290 287 287 287 289 289 289 290
318 315 308 303 296 289 286 283 280 280 281 283 288 295 294 289 288 291 291 289 289 292 292 290 287 281 276 276 275 272 271 272 274 275 274 275 277 279 280 281 283 287 290 291 293 294 293 295 294 294 299 296 292 299 306 305 302 302 307 307 305 306 306 306 310 310 310 311 308 306 305 303 304 309 313 314 310 304 300 297 293 291 289 290 290 289 289 289
311 312 306 302 299 295 292 285 281 280 279 283 292 293 288 287 290 291 291 291 290 291 291 289 287 282 278 276 276 274 272 273 275 275 273 274 276 279 281 280 279 283 287 286 290 294 292 293 298 300 301 297 295 302 306 304 303 305 307 305 303 304 302 303 307 307 309 310 305 302 301 301 304 307 311 312 308 304 300 296 293 292 291 291 290 289 289 289
305 306 306 304 300 298 294 287 282 281 280 285 292 290 287 289 292 290 291 294 292 291 291 289 285 283 281 278 275 274 273 274 276 276 274 275 277 278 280 282 278 279 284 286 287 292 292 294 298 299 298 299 300 303 303 303 304 304 303 302 304 306 304 301 304 307 307 304 302 303 302 303 305 306 308 309 304 301 298 294 293 291 290 290 289 289 289 288
305 304 304 304 301 297 293 289 284 281 282 287 290 289 289 291 291 290 291 292 292 292 291 290 286 283 282 280 277 276 275 274 275 276 276 276 278 277 278 283 282 280 286 288 287 290 292 293 295 296 297 300 302 301 301 302 303 301 301 303 305 305 304 303 304 307 305 300 302 304 302 302 304 306 308 305 300 298 295 294 293 291 289 288 289 290 290 289
304 303 302 303 301 296 292 288 285 283 286 289 290 290 290 291 292 292 290 291 291 291 289 287 286 284 281 280 279 277 276 275 275 275 276 277 278 278 278 282 285 286 288 288 288 291 292 293 295 297 298 299 300 299 299 301 303 302 301 303 303 302 303 303 303 304 303 300 302 304 304 301 298 302 306 302 297 295 293 293 292 290 288 288 290 290 290 289
301 299 299 301 300 295 290 288 286 287 289 290 290 291 291 290 292 291 290 290 290 289 288 287 286 284 280 278 279 277 275 276 277 276 276 277 278 279 282 284 286 288 290 288 288 290 292 293 295 298 299 299 299 296 297 301 304 304 301 300 301 301 300 301 301 303 303 300 301 304 306 303 299 302 305 300 296 294 293 293 291 289 287 288 290 291 290 289
297 296 296 298 297 293 289 288 288 289 291 291 290 291 291 291 290 288 288 289 288 288 287 286 284 283 280 277 277 277 276 276 276 276 277 278 279 281 286 287 284 285 288 289 289 290 290 290 293 297 298 297 296 297 299 301 302 300 297 297 298 299 300 299 298 299 300 300 301 303 303 302 304 308 305 300 299 296 293 292 291 290 288 289 290 290 290 288
295 294 293 295 295 289 286 290 293 292 292 292 290 290 291 290 289 287 287 287 287 288 287 285 283 282 281 279 277 276 276 276 276 277 277 277 279 283 287 288 285 283 286 288 288 289 289 289 291 294 295 294 297 302 304 304 303 300 297 297 297 298 299 299 299 299 297 296 298 300 299 300 305 308 305 302 302 298 293 292 293 291 289 289 290 290 289 288
295 295 294 295 293 287 287 292 294 293 291 291 291 290 290 290 289 288 286 286 287 287 286 285 283 281 279 279 278 276 276 277 276 277 278 278 281 284 285 286 285 284 286 289 290 290 291 291 291 292 293 296 301 304 304 304 303 301 299 300 299 299 297 295 298 301 299 296 297 298 297 299 305 307 305 304 303 300 295 293 294 293 290 290 290 289 289 288
296 296 295 296 292 287 289 293 292 292 291 292 293 291 289 290 290 289 288 286 287 287 286 285 281 280 279 279 278 276 275 276 275 276 280 281 282 284 284 284 284 285 288 289 289 290 290 290 291 293 296 299 301 302 303 304 303 300 300 301 300 300 300 297 297 300 300 297 298 296 294 299 305 307 305 305 304 302 299 296 295 294 292 291 290 289 289 288
296 295 294 296 292 287 289 292 291 291 292 293 293 291 290 290 289 290 289 287 287 287 286 285 282 281 281 280 278 277 276 277 278 279 281 282 283 285 286 285 284 286 288 288 289 289 289 290 293 297 300 301 302 303 303 304 303 301 302 303 301 303 305 302 298 298 297 295 293 293 293 298 305 305 304 305 303 300 299 298 296 294 292 291 291 290 290 289
296 295 294 295 293 290 291 292 291 291 292 293 293 292 292 291 289 290 291 289 288 287 287 288 286 284 282 280 279 278 277 277 280 283 285 284 284 285 287 286 285 287 289 290 291 290 289 290 291 293 297 298 300 302 304 304 304 303 304 304 302 301 301 300 299 296 295 294 292 291 293 298 302 303 302 303 301 298 297 296 295 294 293 292 291 291 290 290
296 296 295 294 294 292 292 292 292 292 292 291 292 293 292 292 292 291 290 289 288 287 288 289 287 285 283 281 280 279 278 277 280 285 286 284 286 287 287 288 288 288 291 291 291 291 291 292 290 288 288 291 295 299 302 303 302 301 302 301 300 300 299 300 299 294 294 296 293 292 293 295 298 301 301 300 298 296 295 294 293 293 292 292 291 290 290 290
296 295 296 295 293 292 292 292 291 292 292 291 291 293 291 291 293 292 289 289 290 288 288 288 285 283 282 281 281 281 281 281 281 284 285 285 287 289 289 290 290 290 292 292 291 292 292 292 291 288 287 291 297 300 301 301 299 299 301 300 299 300 299 296 292 292 296 298 295 295 296 296 298 302 303 300 297 296 295 294 293 293 292 292 291 291 290 290
298 295 295 295 294 293 293 293 292 292 292 291 291 292 291 291 292 291 289 290 290 288 287 288 285 280 280 282 284 284 285 284 283 284 287 288 290 291 291 291 292 292 293 292 293 293 291 292 294 293 292 295 298 298 299 298 298 300 302 301 299 299 297 292 290 293 296 293 292 297 299 298 301 305 306 304 301 299 298 296 295 295 294 293 292 292 291 291
298 296 295 294 294 293 293 293 293 291 291 292 291 290 290 289 288 290 290 289 289 287 286 288 286 281 281 282 284 286 285 286 286 287 288 289 290 291 292 292 293 295 294 293 294 294 292 293 296 296 296 298 297 297 298 300 301 302 302 301 300 298 295 293 293 296 296 291 293 298 298 299 304 308 308 308 307 305 303 301 299 297 295 294 293 293 293 293
300 298 297 296 294 294 294 293 292 291 291 292 291 290 291 289 288 291 290 285 287 289 285 286 288 286 285 283 282 284 284 286 289 289 288 289 291 292 293 293 295 296 295 295 295 295 294 295 298 298 298 300 301 301 302 302 302 303 302 300 299 299 298 298 298 299 299 297 298 300 299 301 307 310 310 310 309 308 307 305 302 299 297 296 295 295 294 294
307 303 301 299 298 296 294 294 293 292 292 291 290 290 291 289 288 292 290 283 284 287 282 283 288 291 289 286 282 282 284 286 289 290 289 290 292 293 294 295 295 295 295 296 297 296 295 296 300 300 299 301 305 306 306 304 302 301 301 301 302 302 303 303 303 304 303 302 303 305 304 304 308 310 310 310 310 308 307 305 302 300 299 298 297 296 296 296
312 310 306 304 303 301 298 296 294 293 293 292 291 290 291 291 290 293 293 289 287 287 284 284 288 291 290 286 283 283 287 289 290 292 292 292 293 295 296 297 297 296 295 296 298 299 298 297 300 301 299 301 306 309 308 307 305 305 307 309 310 309 307 306 308 310 309 307 307 307 306 306 308 309 309 309 309 307 306 304 302 300 300 299 299 298 298 297